Wind_Speed
9 9 9 8 7 7 7 7 6 6 6 6 5 5 5 5 4 3 3 3 3 2 2 2 2 2 2 2 2 2 3 3 3 4 5 5 6 6 6 6 6 6 7
9 9 9 8 8 7 7 6 6 6 6 6 6 5 5 4 4 4 3 3 3 3 2 2 2 3 3 3 2 1 2 2 3 4 5 5 6 7 7 6 5 6 7
10 9 9 9 8 7 7 7 6 6 6 6 6 5 4 4 4 5 4 3 3 3 2 2 1 2 2 1 1 2 1 1 2 3 4 5 5 6 6 6 5 6 7
10 9 9 9 8 7 7 7 6 5 5 6 5 4 4 4 4 5 5 4 3 3 2 2 2 1 1 1 1 2 1 1 2 2 3 4 5 5 6 6 6 6 7
10 10 9 9 8 7 8 8 7 5 5 5 5 4 4 4 4 5 5 4 3 3 2 2 3 2 1 1 1 1 1 2 3 2 3 5 5 5 5 6 6 7 7
10 10 9 9 8 8 8 7 7 6 6 5 4 4 4 5 4 4 4 4 3 3 3 3 3 3 2 1 1 1 2 2 3 3 3 4 5 5 5 6 6 7 7
10 10 9 9 8 8 8 8 7 7 6 6 4 4 4 4 4 3 3 4 4 4 4 3 4 3 2 1 1 1 2 3 3 3 2 3 4 4 5 6 7 7 7
9 10 10 9 8 8 8 8 7 7 6 5 4 4 4 4 4 3 3 3 4 4 5 4 4 4 3 3 2 1 2 2 1 1 2 3 4 4 4 6 6 7 8
9 9 9 9 8 8 8 8 8 8 6 5 5 4 4 3 3 4 3 4 4 4 4 4 4 4 4 4 3 2 3 3 2 2 2 2 3 4 5 5 7 7 7
9 9 9 8 7 7 7 8 8 8 6 6 6 5 5 5 4 4 4 4 4 4 4 4 4 5 4 4 4 4 4 4 3 4 3 3 2 3 4 4 6 8 8
9 8 8 7 7 7 8 8 9 8 7 6 5 5 5 5 5 6 6 5 5 5 5 5 5 5 4 4 4 4 4 4 4 5 5 5 3 3 4 4 5 5 6
8 8 8 7 6 7 8 8 8 8 7 6 6 5 6 6 7 7 6 6 6 6 6 6 5 5 5 4 4 4 4 4 4 4 5 5 4 4 4 4 4 5 5
9 8 7 7 7 7 8 8 8 8 7 6 7 6 6 7 7 7 7 7 7 7 7 7 6 6 5 5 5 4 5 5 4 4 4 5 5 5 5 5 5 5 5
9 8 7 7 7 8 7 7 8 8 7 7 7 7 7 7 8 7 7 7 7 7 7 7 7 6 6 6 5 5 5 6 6 5 5 6 6 6 6 6 5 5 5
10 9 7 7 8 8 8 8 8 8 8 8 7 7 7 7 7 7 7 7 7 6 6 7 6 6 6 6 6 6 6 6 6 6 6 6 6 6 6 5 6 6 6
10 10 8 8 9 9 8 9 9 9 8 8 8 8 7 7 7 7 7 6 6 6 6 7 7 6 6 6 7 7 7 7 6 6 6 6 6 6 6 6 7 7 7
10 10 9 9 9 9 9 8 9 9 9 9 9 8 7 7 7 6 6 6 6 5 5 6 7 7 7 6 6 6 7 7 7 7 7 7 8 8 8 8 8 8 8
10 11 11 10 10 10 9 8 9 9 10 10 9 9 8 8 7 7 6 6 6 6 7 6 7 7 7 7 7 7 7 7 7 7 8 8 9 9 9 9 9 9 9
12 11 10 10 11 10 9 9 9 10 10 10 10 10 9 9 8 8 8 7 7 7 7 8 8 8 8 8 8 8 8 8 8 8 8 8 9 10 10 10 10 10 10
12 11 10 10 10 10 10 11 10 10 10 11 10 11 10 10 9 9 9 8 8 8 7 8 9 9 9 9 9 9 8 8 9 9 9 9 9 9 10 11 11 11 11
14 12 12 11 10 11 11 11 11 10 11 11 11 11 10 11 10 10 10 9 9 8 8 8 9 9 9 10 10 10 10 10 10 10 11 10 10 10 10 11 12 13 13
14 13 13 12 11 10 10 11 11 12 12 12 12 11 11 11 10 10 11 10 9 9 9 9 9 9 9 10 10 11 11 11 11 11 11 11 11 11 11 12 13 14 14
14 13 14 13 12 11 11 12 12 13 13 13 12 12 12 11 11 10 11 11 10 10 10 10 10 10 11 11 11 11 11 11 11 11 12 12 12 12 13 13 14 14 15
14 15 15 12 13 11 10 11 12 13 13 13 13 13 12 12 12 12 11 11 11 11 11 11 11 12 12 12 12 12 12 12 12 12 13 13 14 14 14 14 14 15 15
15 14 14 13 13 12 12 12 13 13 13 13 13 13 13 13 12 12 13 13 12 12 12 12 13 13 14 14 13 13 13 13 13 13 13 14 14 15 15 15 15 15 15
17 16 16 15 16 15 13 14 13 14 14 14 14 14 13 13 13 13 13 14 13 13 14 14 14 15 15 14 14 14 15 15 14 14 14 15 15 15 16 16 16 16 16
Wind_Direction
9 11 11 7 5 3 1 359 357 352 344 335 324 314 312 314 318 322 318 311 310 307 306 308 313 319 290 271 253 219 207 205 224 212 206 207 208 208 204 202 201 196 194
10 9 6 1 358 358 355 353 352 349 342 334 320 309 308 305 302 303 308 303 308 307 301 298 295 304 302 291 288 239 230 225 218 220 218 213 210 204 200 203 201 198 193
7 6 1 357 358 359 355 352 347 343 340 335 324 308 306 303 302 299 300 301 306 304 293 291 286 286 288 286 275 260 251 238 219 225 212 208 205 201 200 199 200 204 204
4 3 359 358 357 357 353 349 344 338 337 336 333 316 310 301 301 298 296 296 293 289 287 278 273 274 243 254 252 247 229 187 236 244 213 200 197 199 199 199 201 208 210
2 359 359 359 355 350 346 345 343 338 339 336 334 326 316 297 295 297 291 284 278 273 274 272 273 282 273 265 240 240 220 230 240 252 228 217 206 212 214 215 211 211 214
355 355 354 354 353 350 347 346 348 342 339 335 331 327 316 305 297 297 291 275 266 265 268 271 273 283 294 290 242 247 260 255 250 249 226 215 213 212 213 216 207 204 212
346 347 345 349 350 349 347 347 347 342 338 336 333 327 322 316 309 300 287 272 262 262 267 272 273 272 281 289 267 271 244 256 282 258 238 216 209 213 218 216 211 213 216
342 342 340 342 344 344 345 343 342 339 337 339 330 326 322 319 320 312 298 273 264 265 266 265 261 259 260 266 265 247 241 253 272 268 236 217 216 217 228 225 223 226 223
340 336 335 339 342 342 342 342 339 336 336 332 322 318 317 309 306 312 309 291 275 267 263 259 252 252 253 252 253 242 240 247 241 248 242 211 206 218 230 234 232 227 225
335 333 333 335 336 338 338 339 340 337 331 326 313 300 302 301 301 303 299 289 281 270 264 260 257 256 255 250 247 250 252 235 245 235 245 236 211 207 216 227 227 225 229
330 334 337 335 333 334 336 337 337 334 331 325 317 304 294 295 300 301 295 293 286 271 270 266 259 258 260 257 255 254 253 253 254 239 242 247 248 249 248 249 232 224 227
328 333 337 334 331 331 336 338 339 339 335 329 325 305 291 289 292 295 292 290 285 276 274 273 269 267 265 261 263 263 258 249 259 253 249 254 253 263 261 256 250 245 245
321 328 332 331 329 329 335 337 340 340 332 327 322 308 292 288 288 291 286 284 280 277 271 268 266 261 263 267 267 265 263 266 270 269 261 257 255 259 257 246 250 255 253
322 328 327 323 326 328 334 335 336 336 331 326 320 314 304 293 287 289 282 281 278 274 270 265 263 258 260 266 266 265 266 269 271 272 266 262 264 260 261 255 258 257 254
324 320 320 319 319 322 324 327 326 326 329 327 321 319 313 302 294 292 288 283 282 272 262 257 257 261 263 269 272 265 265 268 267 270 271 264 256 256 257 267 272 271 255
320 312 308 311 314 316 316 316 318 321 324 328 321 314 311 306 300 293 288 286 286 275 259 256 258 262 268 271 272 266 261 263 266 267 271 264 255 257 262 272 272 269 264
305 303 298 299 305 307 307 308 312 315 316 320 318 311 309 303 300 297 293 283 274 264 259 255 256 257 261 268 270 270 264 265 266 265 268 267 261 258 261 263 264 267 265
300 301 298 298 303 306 307 305 306 309 311 315 317 311 306 299 297 295 288 282 276 264 254 256 256 259 265 271 274 276 269 264 267 266 265 264 263 260 258 259 263 266 267
292 296 295 302 306 308 308 307 306 306 309 312 313 311 301 293 291 289 282 275 274 272 263 259 259 264 269 273 274 279 273 264 265 265 266 265 265 262 260 261 262 263 267
289 290 287 295 301 303 307 308 309 307 308 311 310 307 299 291 287 283 278 275 269 266 264 263 264 267 268 273 273 275 273 269 269 268 266 266 267 267 267 268 267 266 264
289 287 288 293 298 299 301 304 305 304 307 308 307 307 300 292 285 277 275 273 268 265 266 267 265 269 270 274 275 276 275 276 273 270 269 267 270 270 268 269 270 272 270
292 292 294 292 291 290 293 296 297 299 303 306 306 302 300 297 287 275 275 275 271 266 267 270 270 274 273 277 278 275 276 279 275 268 268 267 271 272 272 273 274 275 277
291 292 295 287 283 288 289 290 292 294 298 299 300 296 294 295 287 277 272 274 272 268 266 271 275 275 278 278 280 281 277 275 273 268 266 268 271 271 271 273 275 278 277
289 287 290 286 288 288 289 292 294 293 292 295 295 293 290 290 285 275 272 271 272 269 266 268 275 280 282 280 281 282 281 276 271 269 269 268 268 269 270 273 276 277 277
284 283 284 281 288 289 290 293 294 293 295 294 291 288 286 284 280 274 271 271 274 270 270 274 277 279 281 279 279 280 281 275 272 270 269 270 269 269 270 273 275 275 276
281 280 280 280 283 284 288 292 291 290 294 295 290 285 282 281 276 273 271 269 270 271 272 275 278 278 279 277 275 276 278 276 271 271 271 271 271 271 271 271 271 272 274
Height
5893 5891 5890 5889 5888 5887 5886 5885 5884 5883 5883 5882 5881 5881 5880 5880 5879 5879 5878 5878 5877 5877 5876 5876 5875 5875 5874 5874 5874 5874 5875 5875 5875 5875 5875 5876 5877 5877 5878 5878 5879 5880 5880
5893 5891 5890 5890 5889 5888 5886 5885 5884 5883 5882 5881 5880 5880 5880 5879 5879 5878 5878 5878 5877 5876 5876 5876 5875 5875 5874 5874 5874 5874 5874 5874 5874 5874 5875 5875 5876 5876 5877 5878 5878 5879 5880
5893 5892 5891 5890 5889 5887 5886 5885 5884 5883 5882 5881 5879 5879 5879 5879 5879 5878 5878 5877 5877 5876 5876 5876 5875 5874 5874 5874 5873 5873 5874 5874 5874 5874 5874 5875 5875 5875 5876 5877 5878 5879 5880
5893 5892 5891 5890 5889 5887 5886 5885 5884 5883 5882 5881 5879 5879 5879 5879 5878 5878 5877 5877 5876 5876 5875 5875 5875 5874 5874 5873 5873 5873 5873 5873 5874 5874 5874 5874 5874 5875 5875 5876 5877 5878 5879
5893 5892 5891 5890 5889 5887 5886 5885 5884 5883 5882 5881 5880 5879 5879 5878 5878 5877 5877 5876 5876 5875 5875 5875 5874 5874 5873 5873 5873 5873 5873 5873 5874 5873 5874 5874 5874 5874 5875 5876 5876 5877 5878
5893 5892 5891 5889 5888 5887 5885 5884 5883 5883 5882 5880 5880 5879 5878 5878 5877 5876 5876 5876 5875 5875 5875 5874 5874 5873 5873 5873 5873 5873 5873 5873 5873 5873 5873 5874 5873 5873 5874 5875 5875 5876 5877
5893 5891 5890 5889 5888 5886 5885 5884 5883 5882 5881 5880 5879 5878 5878 5877 5876 5876 5875 5875 5875 5874 5874 5874 5873 5873 5873 5873 5873 5873 5873 5872 5873 5873 5873 5873 5873 5873 5873 5874 5875 5876 5876
5892 5890 5889 5888 5887 5886 5885 5883 5882 5881 5880 5879 5879 5878 5877 5876 5876 5875 5875 5874 5874 5873 5873 5873 5873 5872 5872 5872 5873 5873 5872 5872 5872 5873 5873 5873 5872 5872 5873 5873 5874 5874 5875
5891 5889 5888 5887 5886 5885 5884 5883 5881 5880 5879 5878 5878 5877 5876 5876 5875 5874 5874 5873 5873 5872 5872 5872 5872 5872 5872 5872 5872 5872 5872 5872 5872 5872 5872 5872 5871 5871 5872 5872 5873 5873 5874
5890 5889 5887 5886 5885 5884 5883 5882 5881 5879 5878 5877 5877 5876 5876 5875 5874 5873 5873 5872 5872 5871 5871 5871 5871 5871 5871 5871 5871 5871 5871 5871 5871 5871 5871 5871 5871 5871 5871 5872 5872 5873 5873
5889 5888 5886 5885 5884 5883 5882 5881 5880 5878 5877 5876 5876 5875 5874 5874 5873 5872 5872 5871 5871 5870 5870 5870 5870 5870 5870 5870 5870 5870 5870 5870 5871 5870 5871 5871 5870 5870 5871 5871 5871 5872 5872
5887 5887 5886 5884 5884 5883 5881 5880 5879 5877 5876 5875 5875 5874 5873 5873 5872 5872 5871 5870 5870 5869 5869 5869 5869 5869 5869 5869 5870 5870 5869 5869 5870 5870 5870 5870 5869 5869 5870 5870 5870 5871 5871
5886 5885 5884 5883 5883 5882 5880 5879 5877 5876 5875 5874 5873 5873 5872 5871 5871 5870 5870 5869 5869 5868 5868 5868 5868 5868 5868 5868 5869 5868 5868 5868 5868 5869 5869 5868 5868 5868 5868 5869 5869 5869 5869
5884 5884 5883 5882 5881 5880 5879 5878 5876 5875 5874 5873 5872 5871 5871 5870 5870 5869 5868 5868 5867 5867 5866 5866 5867 5867 5867 5867 5867 5867 5867 5867 5867 5867 5867 5867 5867 5867 5867 5867 5867 5867 5867
5882 5882 5881 5880 5879 5878 5877 5876 5876 5874 5873 5872 5871 5870 5869 5868 5868 5867 5867 5866 5865 5865 5865 5865 5865 5865 5866 5866 5865 5865 5865 5866 5866 5866 5866 5866 5866 5866 5865 5865 5865 5865 5866
5880 5880 5879 5878 5877 5876 5875 5875 5874 5873 5871 5870 5869 5868 5868 5867 5866 5866 5865 5864 5864 5864 5864 5864 5864 5864 5864 5864 5864 5864 5864 5864 5864 5864 5864 5864 5864 5864 5864 5864 5864 5864 5864
5878 5878 5877 5877 5875 5874 5873 5873 5872 5870 5870 5869 5868 5867 5866 5865 5864 5864 5864 5863 5862 5862 5862 5862 5862 5862 5862 5863 5862 5862 5862 5862 5862 5862 5862 5862 5862 5862 5862 5862 5862 5862 5862
5876 5875 5875 5875 5873 5872 5871 5870 5870 5869 5868 5866 5865 5864 5864 5863 5862 5862 5862 5861 5861 5860 5861 5861 5861 5861 5861 5861 5860 5860 5860 5860 5860 5860 5860 5860 5860 5860 5860 5860 5860 5860 5859
5874 5873 5872 5872 5871 5870 5869 5868 5867 5866 5865 5864 5863 5862 5861 5861 5860 5860 5859 5859 5859 5859 5859 5859 5859 5859 5859 5859 5858 5858 5858 5858 5857 5857 5858 5858 5858 5857 5857 5858 5858 5858 5857
5872 5871 5870 5869 5868 5867 5866 5866 5865 5864 5863 5862 5861 5860 5859 5858 5858 5857 5856 5856 5856 5856 5856 5857 5857 5857 5856 5856 5856 5856 5856 5855 5855 5855 5855 5855 5855 5855 5855 5855 5855 5855 5854
5869 5869 5868 5867 5866 5865 5864 5863 5862 5861 5860 5859 5858 5857 5856 5855 5855 5854 5854 5853 5853 5854 5854 5854 5854 5854 5854 5854 5853 5853 5853 5853 5853 5852 5852 5852 5852 5852 5852 5852 5851 5851 5850
5866 5866 5866 5865 5864 5862 5861 5861 5860 5858 5857 5856 5855 5854 5853 5852 5851 5851 5851 5850 5851 5851 5851 5851 5851 5851 5851 5851 5850 5850 5850 5850 5849 5849 5849 5849 5849 5849 5849 5848 5848 5847 5847
5862 5862 5862 5861 5860 5859 5858 5857 5857 5855 5854 5854 5853 5851 5850 5849 5848 5848 5847 5848 5848 5848 5848 5848 5848 5848 5848 5848 5847 5847 5847 5846 5846 5846 5845 5845 5845 5845 5845 5844 5844 5843 5843
5859 5859 5858 5857 5856 5855 5854 5854 5853 5852 5851 5850 5849 5848 5847 5846 5845 5844 5844 5844 5844 5844 5844 5845 5845 5845 5845 5844 5844 5843 5843 5843 5843 5842 5842 5842 5841 5841 5840 5840 5840 5839 5839
5855 5854 5854 5854 5853 5852 5851 5850 5849 5848 5847 5846 5845 5844 5843 5842 5841 5841 5841 5841 5841 5841 5841 5841 5841 5841 5841 5841 5840 5840 5839 5839 5839 5838 5838 5838 5837 5837 5837 5836 5836 5835 5834
5851 5851 5850 5850 5849 5848 5847 5846 5846 5845 5843 5842 5841 5840 5839 5838 5838 5837 5837 5837 5837 5837 5837 5837 5837 5837 5836 5836 5836 5835 5835 5834 5834 5834 5834 5833 5833 5833 5832 5832 5831 5831 5830